Theta_e
341 340 342 342 344 348 346 344 347 349 350 350 351 351 351 351 350 350 350 350 350 350 350 350 350 350 350 348 346 347 346 346 346 346 345 344 341 341 342 343 343 343 343 344 343 344 344 345 345 346 346 346 347 347 348 348 347 347 347 346 346 346 347 346 345 345 345 346 346 346 345 347 347 347 347 347 347 345 341 341 340 337 338 341 344
341 342 342 343 345 347 347 345 346 348 350 351 351 351 351 351 350 349 349 349 349 349 350 349 350 350 349 348 347 346 346 346 346 346 345 344 341 340 341 342 342 342 342 343 343 343 342 342 345 345 345 345 346 346 347 347 347 346 346 346 345 345 344 344 343 343 343 343 344 345 344 345 346 347 347 347 346 345 341 340 338 337 339 342 343
343 342 343 344 344 344 346 346 346 348 349 351 352 351 351 350 350 349 349 349 349 349 349 349 350 349 349 348 347 346 345 346 346 345 345 343 341 339 339 341 341 341 342 342 342 342 342 341 342 343 343 343 346 346 346 347 346 345 345 345 344 343 343 343 342 341 341 341 341 342 343 343 343 346 346 346 346 345 341 340 338 338 339 342 342
341 342 343 343 343 345 345 347 347 347 350 351 351 350 350 350 349 349 348 348 347 348 347 348 348 348 348 348 347 346 345 345 345 345 345 343 341 338 338 340 341 341 341 341 341 341 341 340 340 341 342 343 345 346 346 346 346 345 345 344 344 342 342 341 341 340 340 339 339 340 341 341 341 344 346 347 346 344 340 339 338 340 341 341 341
341 342 342 343 345 344 343 345 347 349 351 351 350 350 349 349 349 348 348 348 347 347 347 348 348 348 348 348 346 345 345 345 345 345 345 344 341 338 337 338 340 341 341 341 341 341 340 339 340 342 342 342 344 346 345 345 345 345 344 343 343 342 341 341 340 339 339 338 337 338 338 339 340 341 343 345 343 339 338 338 338 338 338 339 339
341 342 342 343 344 346 346 348 349 351 351 351 351 349 349 349 349 349 348 347 347 346 346 347 347 347 348 347 345 345 345 345 345 345 344 344 342 337 336 338 340 340 340 340 340 340 340 339 339 339 341 344 344 345 344 344 344 344 344 343 343 342 341 340 340 339 337 337 337 336 335 335 335 337 340 341 339 337 337 338 338 338 338 338 338
341 342 342 343 345 346 344 349 350 350 350 350 350 349 349 349 349 348 348 348 347 347 346 345 345 346 347 346 344 344 345 346 345 344 344 343 342 338 336 337 338 339 339 340 340 340 339 339 339 340 342 343 343 344 344 343 343 343 342 342 343 342 341 340 339 338 337 338 336 335 334 335 335 336 340 339 338 339 337 338 338 337 338 337 337
343 342 343 344 346 345 344 348 349 350 350 349 349 349 349 348 348 347 347 347 347 346 346 345 345 345 347 346 345 344 345 345 344 344 343 343 342 339 335 336 338 338 338 338 339 339 339 338 338 340 341 341 342 342 342 342 342 342 341 341 341 340 340 339 338 337 337 337 338 335 334 334 334 334 337 338 338 338 337 337 337 338 337 337 335
343 343 345 346 347 342 343 348 349 349 350 349 349 349 348 348 347 347 347 346 346 346 345 345 346 346 346 346 345 345 345 345 344 344 343 342 341 339 335 335 337 337 337 338 338 338 338 338 338 339 341 342 341 341 341 342 342 341 341 341 340 339 337 336 335 335 335 336 336 334 334 334 334 334 336 337 337 337 336 335 335 336 336 335 334
345 344 346 347 347 340 345 347 349 349 350 349 349 348 348 347 347 347 347 346 346 346 346 345 345 346 345 346 345 345 344 344 344 343 342 341 340 337 335 334 336 337 337 337 338 338 338 338 338 339 340 341 340 340 341 341 340 340 339 339 338 337 335 334 333 333 334 335 334 334 335 335 333 333 335 337 335 336 334 334 334 334 334 334 334
344 344 345 346 345 339 345 349 349 349 349 349 348 348 348 347 347 347 347 346 346 346 345 345 345 346 345 346 345 345 344 344 343 342 341 340 338 337 333 333 336 336 336 337 337 338 337 338 337 338 339 340 339 339 339 339 338 339 338 337 335 334 333 331 330 332 333 334 334 334 335 336 334 334 337 336 336 335 335 334 333 334 334 334 334
344 344 344 344 342 338 345 347 349 349 349 349 348 348 348 347 346 346 347 346 346 346 345 346 345 345 345 345 345 344 343 343 342 342 341 340 337 335 333 333 336 337 336 336 336 337 337 338 337 338 338 339 338 338 338 338 337 337 336 334 332 330 329 327 328 330 332 333 333 335 334 332 333 333 335 336 336 335 334 334 334 334 335 334 334
344 344 344 344 343 336 342 345 345 347 349 348 348 348 347 347 347 346 346 346 346 346 345 345 345 345 345 345 345 344 342 342 342 342 341 339 336 334 332 333 336 336 336 335 335 336 336 337 337 337 338 339 338 337 337 336 336 334 333 331 329 327 325 324 325 327 329 332 332 334 334 332 333 335 335 335 335 335 334 334 334 334 334 334 334
344 344 344 345 344 342 338 342 344 346 348 347 347 348 347 347 347 346 346 345 345 345 345 345 345 345 345 345 344 343 343 342 342 342 341 339 335 332 330 332 335 336 336 335 335 335 335 335 335 335 335 334 335 335 335 334 333 332 331 329 327 326 323 322 324 325 327 329 331 333 335 330 331 334 335 336 336 335 334 334 333 334 333 333 333
344 344 344 345 345 345 339 337 340 342 344 346 347 348 347 346 347 347 346 347 346 346 345 345 345 345 345 344 344 343 343 342 342 342 341 338 334 331 329 331 333 334 334 335 335 335 334 333 332 331 331 331 332 332 332 331 331 330 329 328 326 324 322 323 325 326 326 327 329 332 336 331 334 334 338 339 338 335 334 334 334 333 333 333 333
345 344 345 345 345 343 343 339 334 335 340 342 344 345 346 347 347 347 347 346 346 346 346 345 345 345 344 344 343 343 342 342 341 341 338 335 333 330 330 331 332 332 333 333 332 331 329 327 326 325 326 328 329 329 329 328 327 327 326 325 323 322 321 322 325 326 327 327 328 330 334 333 337 337 338 338 338 338 337 336 335 333 337 335 334
343 343 344 343 344 342 343 343 337 331 332 335 338 340 341 343 345 346 346 346 346 346 345 345 344 344 344 343 343 342 342 342 341 340 338 335 333 330 329 330 330 331 331 332 331 328 326 323 322 323 324 324 325 326 326 326 325 324 323 322 321 320 319 320 323 325 326 327 329 330 329 331 335 337 338 337 338 338 337 337 335 337 337 338 337
337 340 338 338 337 340 343 342 340 342 341 334 332 336 339 341 343 343 343 343 345 345 345 345 344 344 343 341 339 340 341 341 341 339 337 335 334 331 329 329 328 329 329 330 329 327 324 323 322 322 322 322 323 323 324 324 323 322 321 320 319 318 318 319 321 322 325 326 329 331 327 331 332 334 336 336 336 337 337 337 337 336 337 337 336
328 328 328 331 332 334 338 341 340 341 341 341 341 338 333 337 338 339 340 342 342 343 343 340 340 340 338 336 335 335 336 336 338 337 335 334 333 332 330 328 326 326 327 328 329 328 327 325 324 324 323 322 322 322 323 322 321 320 319 318 316 316 316 319 321 322 324 325 327 327 327 330 330 332 334 335 334 334 336 338 336 335 336 336 336
324 326 324 326 329 330 333 337 340 341 341 340 341 341 332 330 333 335 336 338 339 338 337 336 335 333 332 330 328 331 330 333 327 333 332 332 330 329 331 329 328 327 325 325 327 327 327 325 324 323 323 322 322 321 321 321 319 318 316 315 314 314 317 319 321 322 323 324 326 325 328 328 329 330 331 332 332 332 333 334 335 335 335 334 335
321 322 321 324 324 327 328 333 332 335 338 339 340 340 336 328 329 329 330 333 334 333 333 327 326 325 327 326 328 335 335 336 337 336 327 334 325 325 330 329 327 326 324 323 323 323 323 322 321 319 318 316 315 316 316 317 316 315 314 312 311 314 316 317 319 320 322 324 326 325 328 328 329 330 331 331 331 331 331 331 332 333 334 333 333
324 321 319 320 323 323 325 327 329 330 334 337 339 339 337 334 340 339 337 333 328 326 331 335 330 334 324 332 336 334 335 335 333 331 334 332 329 323 326 330 328 326 325 323 323 322 322 321 319 318 316 312 309 307 308 310 311 311 310 309 310 312 313 315 316 318 320 323 327 326 329 328 328 329 329 329 330 329 330 329 329 329 331 331 332
322 319 319 317 319 320 322 323 323 327 332 334 338 339 338 338 340 339 336 329 331 333 334 333 335 334 336 337 335 336 336 334 333 332 332 324 328 323 326 329 329 326 324 323 322 322 321 320 318 316 313 310 308 307 307 307 306 306 306 307 307 308 309 311 313 315 317 320 325 326 328 328 329 330 328 329 330 328 328 328 328 328 328 327 327
323 320 318 316 317 319 319 320 320 322 330 332 334 338 338 338 339 339 336 336 335 335 335 334 333 334 335 336 336 335 334 333 327 324 326 331 327 322 322 322 322 320 319 321 321 320 319 318 315 312 310 308 308 307 306 306 305 305 304 304 304 304 305 307 308 311 314 318 322 323 328 328 329 329 329 330 329 328 328 327 328 327 328 327 326
317 315 315 316 317 317 318 319 318 321 324 327 329 335 338 338 338 338 337 336 335 335 335 334 333 334 334 335 335 335 334 332 331 332 332 332 330 330 328 325 323 319 315 316 314 313 312 312 311 310 309 308 307 306 306 304 303 303 301 301 301 301 301 302 304 307 310 315 319 321 326 327 328 330 331 331 329 328 328 327 328 328 328 328 327
310 314 316 315 315 314 316 316 317 320 323 325 326 328 335 338 337 337 336 335 336 335 334 334 334 334 334 334 334 333 332 331 331 332 331 331 330 329 327 324 322 319 317 317 317 315 313 311 310 309 307 307 305 305 304 303 301 300 299 299 299 298 299 299 300 302 306 311 315 319 323 325 326 328 330 330 329 328 329 329 329 329 329 328 327
310 314 312 312 313 313 314 315 318 321 323 323 325 325 331 337 337 337 336 335 336 334 333 334 334 334 333 332 333 332 332 331 330 332 331 331 329 329 327 324 322 320 318 317 317 315 313 311 310 308 306 305 304 304 302 301 300 299 298 298 297 297 297 297 297 299 302 306 310 315 320 322 324 325 327 329 330 330 329 329 329 329 328 328 328
310 311 309 311 312 313 310 314 319 320 324 324 324 327 329 334 336 336 336 333 333 334 334 334 335 333 332 332 332 332 331 330 330 331 332 331 329 329 327 326 324 322 320 318 317 316 313 311 309 307 305 305 303 302 301 300 299 299 298 297 297 296 295 295 295 296 298 301 306 309 316 320 321 323 325 328 329 329 330 329 329 329 328 328 328
309 307 309 310 312 311 310 313 314 317 322 325 325 327 330 332 335 336 336 331 335 334 334 333 334 333 332 332 332 332 331 330 330 330 332 330 329 328 327 326 325 323 320 318 317 315 312 310 308 306 305 304 302 301 300 300 298 298 297 296 295 295 294 294 294 294 295 296 300 303 310 316 318 320 321 323 325 327 328 328 328 328 327 326 326
309 309 307 309 310 308 311 314 313 316 319 322 325 326 329 330 332 334 334 328 334 334 332 332 331 332 331 332 332 333 332 330 330 329 330 329 329 328 327 326 324 323 321 318 318 315 312 310 308 306 304 303 302 301 299 298 297 296 296 295 294 293 294 293 293 293 293 294 295 297 302 309 314 317 318 319 321 322 324 325 326 327 327 327 326
307 307 308 309 310 310 312 312 312 312 316 319 324 326 328 330 331 332 331 331 331 330 331 332 331 331 330 330 331 332 331 331 330 329 328 329 328 327 327 326 324 324 321 319 318 315 312 310 307 304 303 302 301 300 298 297 296 295 295 294 293 294 293 293 293 293 292 293 293 294 296 300 307 312 314 316 318 318 320 321 323 323 324 325 324
305 307 308 309 309 311 313 312 313 313 315 317 319 323 327 329 329 328 328 329 329 330 330 328 326 329 329 328 331 331 330 329 329 328 327 327 326 325 325 324 323 324 321 319 316 314 312 310 307 305 304 303 301 299 298 296 295 294 294 293 293 293 292 293 292 292 292 293 293 293 293 294 297 303 309 314 316 316 317 319 320 320 320 320 321
306 308 308 308 310 311 312 313 313 314 315 316 318 323 327 326 326 327 325 325 326 328 329 327 327 327 328 328 330 330 329 328 328 327 323 325 324 322 323 321 321 320 320 318 316 315 312 309 306 305 303 301 299 297 297 295 293 293 292 292 292 291 292 292 292 292 292 292 292 292 293 293 293 295 299 306 311 314 314 315 317 317 317 318 318
306 306 306 308 310 311 312 313 313 314 316 318 319 323 325 324 323 323 322 322 324 324 324 324 324 326 327 327 329 329 328 329 327 324 324 323 322 321 320 319 319 319 319 317 315 313 311 307 304 302 302 300 297 296 294 292 292 292 292 292 292 291 291 291 290 290 291 291 291 292 292 292 292 292 294 297 303 308 311 312 313 313 315 316 317
306 305 307 309 309 311 311 312 313 314 317 318 319 322 322 321 321 319 319 320 320 321 321 321 323 323 324 324 324 324 326 327 327 324 321 320 320 319 318 317 317 317 316 315 314 313 310 306 303 301 301 299 296 295 293 292 292 292 292 292 292 292 292 291 291 290 290 290 290 291 291 291 292 292 292 292 296 302 306 309 309 309 311 312 314
306 306 307 307 309 310 310 311 312 315 318 318 320 320 319 318 317 316 316 315 317 317 318 320 319 320 320 320 321 320 321 323 325 324 321 319 317 315 314 315 315 315 314 314 313 310 308 306 303 301 298 296 294 293 293 292 292 292 293 292 292 292 291 291 291 290 290 290 289 290 290 290 291 291 291 291 292 295 300 302 305 306 307 308 310
306 306 307 308 309 308 309 310 312 316 316 316 314 313 314 313 313 314 315 314 313 313 314 315 317 317 317 318 319 319 320 320 319 320 323 319 317 314 313 313 313 313 314 313 311 310 306 304 302 301 298 295 294 293 293 292 292 291 291 290 290 290 290 290 290 290 290 289 289 289 289 289 290 289 290 290 291 291 293 296 300 302 303 304 306
305 306 307 308 309 308 309 310 312 313 313 312 311 310 310 310 309 310 310 310 310 310 311 313 314 316 315 315 316 317 318 317 315 315 315 316 314 313 313 311 311 311 311 311 309 308 306 303 300 299 297 295 293 292 292 291 291 290 290 289 289 289 289 289 289 289 289 289 288 288 288 288 289 289 289 289 290 290 290 291 292 294 298 300 303
304 305 307 308 308 307 309 309 311 311 310 309 307 307 306 306 307 308 308 308 307 308 308 310 311 311 311 311 313 315 314 313 313 312 311 311 311 310 310 310 309 307 307 306 306 305 303 301 298 297 296 295 294 293 292 291 290 290 289 288 289 288 289 288 288 288 288 289 288 287 288 287 288 288 288 289 289 289 289 290 289 289 290 296 300
304 305 306 307 307 307 309 309 310 309 307 307 307 307 307 306 306 305 305 304 305 305 306 306 308 310 309 309 310 312 312 311 311 311 310 308 308 307 306 306 306 305 304 304 303 303 301 298 296 295 294 294 293 292 292 290 290 289 289 289 289 289 288 288 287 287 287 287 287 288 287 287 287 288 288 288 288 288 288 288 288 288 288 290 294
303 305 306 306 307 308 308 308 308 308 309 308 309 308 307 305 307 309 306 304 303 304 303 304 305 307 307 308 307 308 309 309 309 308 307 305 305 304 305 304 306 306 305 304 304 302 300 298 296 295 293 292 291 292 292 292 289 288 289 289 289 289 289 288 287 287 286 286 287 287 287 287 287 287 287 288 288 287 287 287 287 287 287 288 288
301 304 305 306 306 307 307 308 307 307 309 309 309 309 309 310 308 306 303 302 301 302 301 301 301 302 304 304 305 306 307 306 307 306 304 303 302 302 302 301 303 304 304 303 303 300 299 297 296 293 294 292 290 292 292 293 290 288 287 287 287 290 291 289 287 286 286 286 286 286 286 286 286 286 287 287 287 287 286 286 286 286 286 286 287
302 303 305 305 306 306 307 308 306 308 308 309 308 309 306 304 303 301 303 298 296 296 298 297 297 298 298 300 303 305 305 303 305 304 303 302 302 301 300 300 301 299 300 300 300 299 298 296 296 293 291 292 291 291 291 293 290 290 290 287 284 285 287 287 288 287 286 285 286 286 286 285 285 286 286 287 286 286 286 286 285 285 285 285 286
301 302 304 305 306 306 307 308 307 307 307 307 306 303 299 298 298 298 296 296 295 294 295 295 296 296 296 297 299 302 303 301 301 302 301 301 301 299 298 297 297 300 301 300 299 298 297 296 296 294 293 289 291 290 290 290 290 289 288 290 286 287 284 284 285 286 286 285 285 285 285 285 285 285 286 286 285 285 285 285 284 284 284 284 285
300 302 303 304 305 306 307 307 306 306 306 304 300 298 297 295 295 295 296 295 295 295 295 294 294 295 295 296 296 298 299 298 298 299 299 299 299 298 297 296 297 299 301 300 299 298 298 297 296 294 294 292 290 289 289 289 292 290 292 286 286 286 288 286 285 285 287 286 284 285 285 284 285 285 285 285 285 285 285 284 284 284 284 283 284
299 301 303 305 306 306 306 306 306 305 305 302 298 298 298 296 296 298 299 298 296 296 298 299 295 297 297 293 293 295 296 296 296 297 298 296 296 295 295 295 296 297 300 300 299 298 297 296 296 296 295 294 293 289 288 287 287 288 288 291 294 294 287 285 285 283 285 286 286 284 283 284 284 284 284 284 285 285 285 283 283 283 283 283 283
299 301 303 304 305 305 306 306 306 305 304 300 299 299 298 299 303 304 304 303 301 299 299 300 300 294 292 292 292 293 294 295 295 294 295 294 294 293 293 295 295 296 297 297 296 296 296 296 296 297 296 295 294 292 289 287 286 286 286 287 287 286 290 285 283 284 281 284 286 284 283 283 283 284 284 284 284 284 284 284 283 283 283 283 283
298 301 302 303 304 304 305 305 305 303 302 301 300 300 302 302 302 303 304 305 305 303 299 296 293 291 291 291 291 291 292 293 293 292 292 292 291 291 291 293 294 294 294 296 296 296 295 294 295 296 295 295 296 292 289 287 289 284 285 285 284 284 286 287 288 287 286 282 282 284 284 282 283 283 283 284 284 284 283 283 282 282 282 282 282
298 300 302 303 304 304 304 304 304 302 301 300 300 300 301 301 302 302 301 301 299 297 294 291 290 291 290 289 290 289 289 290 291 291 290 290 289 289 290 291 292 291 293 294 294 293 294 292 291 292 293 294 295 292 288 287 287 285 283 283 285 284 284 284 283 286 285 284 282 283 283 283 283 283 283 283 283 283 284 283 283 282 283 282 282
298 300 302 303 303 303 303 303 303 302 300 299 300 301 302 301 302 302 301 296 292 290 290 289 289 290 289 289 289 289 288 288 288 289 288 288 288 288 289 291 291 291 291 292 291 291 292 292 292 293 293 292 290 290 290 288 288 286 287 286 286 283 285 284 284 283 283 287 283 283 284 284 282 283 283 284 283 283 283 283 282 282 282 282 281
297 300 301 302 303 303 303 302 302 301 300 300 299 299 299 300 301 302 300 295 291 290 289 288 288 289 289 287 288 288 288 288 287 287 287 287 287 287 289 289 289 290 289 290 290 291 290 291 291 291 290 289 288 289 288 287 287 286 286 286 285 285 285 284 283 285 285 282 282 281 281 282 282 283 283 283 284 282 282 282 282 281 281 281 281
Wind_Speed
5 5 3 1 1 10 9 4 4 8 11 12 13 13 14 14 14 15 15 15 15 15 15 15 16 16 16 17 17 17 17 17 17 17 17 17 17 17 16 16 17 17 17 16 16 16 16 17 17 17 17 17 17 18 18 19 20 21 20 20 20 20 19 19 19 18 18 20 21 21 20 20 20 20 20 21 21 20 19 19 16 14 13 16 21
7 5 3 1 3 11 12 7 4 9 13 13 13 14 14 14 13 13 15 16 15 15 15 15 16 16 16 16 17 17 16 16 16 17 17 18 17 16 16 17 17 17 17 16 16 16 15 16 16 16 16 17 17 18 19 20 21 21 21 20 19 19 19 19 18 18 17 17 17 17 19 21 21 19 20 20 21 20 19 19 19 13 12 19 20
5 6 3 3 3 8 7 10 5 8 12 13 13 13 14 13 13 13 13 13 15 16 15 15 15 16 16 16 16 16 16 16 16 16 17 17 17 16 16 17 17 17 17 16 16 16 15 16 16 16 16 17 17 18 18 20 20 20 20 20 19 19 18 18 18 17 17 16 14 13 13 21 21 20 20 22 22 21 20 20 19 17 14 21 20
6 5 3 3 3 3 9 11 7 9 12 12 13 13 13 13 13 13 13 14 14 14 14 15 15 15 16 17 16 16 16 15 15 16 17 17 17 16 16 16 17 17 17 17 16 16 16 16 16 16 16 16 18 18 19 20 20 19 19 19 19 18 18 18 17 17 16 14 13 11 11 12 14 20 20 21 21 21 20 20 21 21 21 21 22
6 5 3 2 2 3 6 7 11 11 12 12 13 13 13 14 13 13 14 14 14 14 15 15 15 15 15 15 16 16 15 15 15 16 17 18 17 16 16 16 16 17 17 17 16 16 16 16 17 16 16 16 17 19 19 19 19 19 19 19 18 18 18 17 16 16 15 15 11 11 10 12 11 18 19 21 20 19 18 20 20 20 20 21 22
6 5 6 3 3 3 3 7 11 12 12 12 12 12 13 13 13 13 14 14 14 15 15 14 14 16 15 15 15 15 15 14 15 16 17 18 17 16 16 16 16 17 17 17 16 16 16 17 16 17 16 17 18 19 19 19 19 18 18 19 19 18 18 17 16 15 13 11 11 10 11 12 11 11 19 19 18 18 19 19 20 19 20 20 20
8 6 6 4 3 2 2 6 10 11 12 12 12 12 12 13 13 13 13 14 14 14 14 15 14 14 15 14 16 15 15 15 15 17 18 18 18 17 16 16 17 17 17 17 17 16 17 17 17 17 17 18 18 18 19 19 19 19 19 19 17 18 18 18 17 15 13 9 9 10 10 11 11 10 19 19 18 19 20 21 21 20 20 20 20
6 6 5 5 4 3 5 6 10 11 11 11 11 12 13 13 13 13 13 13 14 14 14 14 14 15 15 15 16 15 15 15 16 17 18 18 18 17 16 16 17 17 18 18 18 18 18 18 17 17 17 18 18 18 18 18 19 19 18 19 20 18 18 17 16 15 13 11 10 10 10 11 12 11 19 18 19 19 19 21 21 20 22 22 17
6 6 6 5 4 5 4 7 9 10 11 11 11 12 13 13 13 13 13 13 12 13 14 13 13 13 14 15 15 15 15 15 15 16 17 18 18 17 16 17 17 17 18 18 18 18 18 18 18 18 18 19 18 18 18 18 19 19 20 20 19 18 18 16 14 12 9 9 11 11 12 12 12 12 17 19 20 20 20 17 17 20 22 20 18
6 6 6 5 3 5 4 7 8 10 10 11 11 12 12 12 13 13 13 13 13 13 13 13 13 13 14 15 15 15 15 15 15 16 17 17 17 17 17 17 17 17 17 18 18 18 18 19 19 18 18 18 18 18 18 19 19 20 20 20 19 18 17 16 13 11 8 10 11 13 12 13 13 12 17 19 21 21 18 16 17 18 17 19 22
7 5 4 4 3 5 4 7 6 8 10 10 11 11 12 12 13 13 13 12 12 12 12 12 12 12 13 14 15 15 14 14 15 15 17 17 16 17 17 17 17 17 18 18 18 19 19 19 19 18 18 18 18 19 19 20 21 20 20 18 18 18 17 15 11 8 8 9 9 10 11 13 12 12 17 19 20 20 16 18 18 19 21 21 22
7 5 4 3 4 3 5 6 8 8 9 10 10 11 11 12 12 13 12 12 12 12 12 11 11 12 13 14 14 14 14 14 14 15 16 16 16 16 16 17 17 17 18 18 18 19 19 19 19 18 18 19 19 20 21 20 20 19 18 18 18 17 16 14 8 7 8 8 8 7 12 14 14 15 20 20 20 21 20 19 20 20 21 22 21
7 6 4 4 4 4 5 6 4 7 8 9 11 10 11 11 11 12 12 11 12 11 11 11 11 12 13 13 14 14 13 13 14 15 16 16 16 16 16 17 17 17 18 18 18 18 19 18 19 19 18 19 19 19 19 19 19 18 18 18 17 16 15 14 8 8 7 8 7 7 8 12 13 18 19 20 20 20 20 20 20 20 20 21 20
8 6 6 4 5 5 6 4 6 4 8 8 8 9 10 10 10 11 11 11 11 11 11 11 11 12 12 13 14 13 13 13 14 14 16 15 16 16 16 16 17 17 18 18 18 18 18 19 19 19 19 19 19 19 19 19 19 18 18 17 16 15 12 9 8 8 8 8 7 7 6 12 13 17 17 18 18 19 19 19 20 20 20 20 20
9 6 7 4 4 5 5 6 4 4 7 7 8 8 9 9 9 9 11 11 11 11 11 11 11 12 12 12 13 13 14 13 13 14 15 16 15 16 16 16 17 17 17 17 18 18 19 19 18 18 18 18 18 18 19 19 19 18 17 17 16 15 11 7 6 7 7 7 7 8 5 11 13 17 20 20 19 17 17 17 19 19 19 19 18
8 6 5 4 4 3 4 7 5 4 6 2 7 8 7 7 7 8 9 10 12 11 10 11 11 11 12 12 12 13 14 13 13 14 15 15 15 16 16 16 17 17 17 18 18 18 19 19 19 19 18 18 18 18 18 18 18 17 17 17 16 15 13 7 7 7 7 7 7 8 8 14 19 19 19 20 19 18 17 17 17 19 20 19 19
6 6 6 6 5 4 4 5 5 7 5 4 3 7 8 4 6 6 8 8 10 10 10 10 10 11 11 11 11 11 11 13 13 14 15 15 16 16 16 16 17 17 17 18 18 19 19 19 19 19 19 19 19 19 18 18 18 17 17 17 16 15 13 10 7 7 7 7 6 7 11 12 18 20 20 21 21 20 18 17 17 20 19 21 20
5 4 5 5 4 4 5 5 5 5 4 4 3 6 7 6 7 7 6 7 8 9 9 9 9 9 10 9 9 10 11 11 12 14 15 15 16 16 16 16 16 17 17 18 18 19 19 19 19 19 19 19 19 19 19 18 18 17 17 17 16 15 13 9 8 7 8 7 7 7 10 14 18 19 20 20 19 20 22 20 18 19 20 20 20
5 5 3 4 4 4 3 6 5 6 5 5 3 5 6 6 6 6 7 7 8 9 9 9 9 9 9 9 9 10 11 10 11 12 12 12 13 14 16 16 16 17 17 17 18 18 19 19 19 19 19 20 20 19 19 18 17 17 17 16 15 13 11 8 8 7 7 7 8 10 12 17 18 19 20 21 19 19 22 22 22 22 23 21 21
3 3 5 2 3 5 2 5 5 5 5 6 5 5 5 6 6 6 5 8 8 9 9 9 9 10 10 10 10 10 9 9 11 10 11 12 11 11 14 15 16 16 17 17 18 18 18 19 19 19 19 19 19 19 18 18 18 17 17 15 14 11 8 7 8 8 6 6 8 11 13 16 19 20 20 20 20 21 21 22 23 23 23 22 21
2 2 4 1 3 5 4 3 3 4 3 5 6 4 4 7 6 7 6 6 8 9 9 10 9 9 10 9 10 9 8 7 7 7 9 8 10 12 13 14 15 15 17 18 18 19 19 19 19 19 19 19 18 19 19 18 18 18 17 14 11 8 7 7 7 7 7 6 7 10 13 16 19 19 20 20 20 21 22 21 22 23 23 21 22
5 3 2 1 2 3 5 4 3 3 3 4 5 4 4 5 7 6 5 5 6 8 7 7 7 7 8 7 7 7 7 7 6 7 6 9 10 12 12 13 14 13 15 18 18 19 19 19 19 18 18 17 15 9 10 14 18 17 15 12 9 7 8 8 8 8 8 8 6 10 14 17 18 19 19 20 20 20 21 21 20 20 21 22 23
5 3 2 1 0 2 3 4 3 1 3 2 4 5 5 5 6 6 5 6 6 6 6 7 6 8 7 7 6 6 7 6 6 6 6 10 10 11 12 12 12 13 15 17 18 19 19 18 18 17 16 15 9 7 7 7 8 12 11 9 7 7 7 8 8 7 8 8 8 13 15 17 18 18 18 18 19 18 19 20 21 21 21 21 21
7 6 5 1 1 2 3 3 2 2 1 3 2 5 5 5 5 6 5 5 6 6 6 7 7 7 7 7 6 7 7 7 7 10 10 7 8 11 13 13 13 13 14 12 15 17 19 18 16 14 10 7 7 7 7 7 7 7 7 7 7 8 8 7 7 7 7 9 9 15 15 17 17 17 17 18 19 18 18 18 19 19 20 21 20
3 3 2 4 2 1 2 3 2 1 1 1 3 4 6 5 4 5 5 5 6 6 6 6 7 7 7 6 7 7 7 7 7 6 6 6 7 6 6 6 5 7 11 7 7 8 9 8 7 8 7 7 8 7 7 7 7 7 8 7 8 8 8 7 7 7 8 8 10 15 16 17 17 19 19 18 18 18 17 17 18 20 21 22 22
1 4 5 3 1 0 0 2 1 1 0 1 1 1 4 5 4 4 6 5 5 6 6 6 6 7 7 6 7 7 7 7 7 7 7 7 7 7 5 6 6 6 7 7 6 6 7 7 7 7 7 7 8 7 7 7 7 7 8 8 7 7 7 7 7 7 7 7 10 18 19 18 18 19 18 19 19 19 20 20 20 22 21 22 22
4 5 2 1 1 0 0 2 1 1 2 1 1 0 3 4 5 4 4 5 6 6 6 6 6 6 7 7 7 7 7 7 7 7 7 7 6 7 6 6 7 6 5 7 7 6 7 7 7 8 7 8 9 8 8 9 8 8 8 8 8 8 7 7 7 7 7 7 11 20 18 19 19 19 20 20 20 20 21 20 20 21 21 22 23
4 5 4 3 2 2 1 0 2 2 3 2 1 2 3 2 4 5 5 5 4 7 6 6 7 7 7 7 6 7 7 6 6 8 8 7 7 7 6 6 6 6 5 7 8 7 8 7 7 8 9 8 9 8 8 8 8 8 9 9 8 8 7 7 7 7 7 7 9 16 18 18 19 20 20 20 20 21 21 21 22 21 21 22 24
8 6 5 2 3 2 0 2 2 3 3 2 3 2 2 3 4 5 6 6 6 5 5 5 7 6 6 7 7 8 6 5 6 6 7 8 8 7 7 6 6 6 6 6 8 8 8 8 7 8 7 8 8 8 8 8 8 8 8 9 8 8 8 8 7 7 7 7 8 12 20 19 20 20 20 19 19 21 22 22 21 21 22 21 26
9 7 6 6 4 3 4 4 4 2 3 3 4 4 3 4 5 5 4 6 7 7 6 5 3 7 6 7 7 7 7 6 4 4 6 7 8 8 8 7 7 6 6 7 5 7 9 8 8 8 8 8 8 8 8 8 9 8 8 9 8 8 7 7 7 7 7 7 7 9 18 20 20 20 21 21 21 20 21 22 22 21 21 25 25
7 7 7 6 5 4 5 4 3 4 2 3 6 7 5 5 5 5 5 5 5 6 5 5 6 5 7 6 7 5 6 7 6 5 5 7 7 7 8 8 7 6 7 7 6 7 8 8 8 7 7 8 8 7 8 8 8 8 7 9 7 7 7 6 7 6 7 6 6 7 10 18 20 20 21 22 22 21 21 21 21 22 22 22 22
9 9 7 6 6 6 6 5 4 4 4 4 4 6 7 5 5 4 5 5 5 6 5 5 4 5 6 6 7 7 6 5 7 7 6 5 7 6 6 6 8 6 6 7 8 7 8 9 9 8 8 9 9 8 7 8 9 8 7 9 7 7 6 6 7 7 7 6 6 7 7 8 16 19 20 21 22 21 21 21 21 20 20 20 20
5 7 8 7 8 7 6 5 4 4 5 6 6 5 6 5 5 6 4 5 5 5 6 5 4 5 6 5 6 8 6 6 5 7 7 6 7 6 6 7 6 7 8 8 9 9 8 9 8 7 7 8 10 9 7 8 9 8 7 7 6 7 6 6 6 6 7 6 6 6 6 7 8 13 18 20 21 22 21 22 22 21 20 20 20
7 5 6 8 6 5 4 4 4 7 8 7 7 6 6 5 5 4 5 5 4 4 5 5 5 4 5 6 6 7 7 7 7 6 5 8 7 7 7 7 7 8 7 9 7 8 7 9 8 7 7 8 10 9 8 9 8 7 7 6 6 6 5 7 6 6 6 6 6 6 6 6 6 7 8 16 20 20 21 21 21 21 21 21 20
6 6 9 9 7 6 5 4 5 8 8 10 9 8 6 6 6 4 5 4 4 4 4 5 5 5 5 5 5 6 6 8 9 7 5 4 8 8 8 7 8 10 8 7 9 7 8 8 9 8 7 8 9 8 9 9 8 8 6 5 6 5 6 7 6 6 6 5 6 6 6 6 6 7 7 7 11 19 20 21 21 21 21 21 21
9 9 7 7 7 7 6 6 6 8 9 9 9 7 6 6 4 5 6 4 3 5 4 5 5 5 5 5 5 5 6 6 7 8 7 7 6 6 7 8 9 9 9 8 9 8 9 8 7 9 11 9 10 10 8 9 8 8 6 5 5 5 6 5 6 6 5 5 6 6 6 7 7 6 6 6 7 10 20 19 21 21 21 20 20
9 9 10 8 8 7 6 6 7 9 7 8 6 5 5 5 4 3 9 6 2 5 3 3 5 5 5 6 5 6 7 7 5 5 8 9 7 7 6 8 8 9 8 10 8 8 10 9 8 4 8 11 10 12 9 7 7 7 6 6 5 5 6 5 5 5 4 6 6 6 7 7 7 7 6 6 6 6 13 18 18 20 20 20 20
9 9 10 10 9 8 6 6 5 5 5 6 6 5 4 6 3 3 6 7 2 3 4 1 4 5 6 6 5 6 7 6 6 4 5 7 8 8 8 9 8 9 7 9 9 7 8 9 9 5 5 10 10 11 10 7 6 7 6 6 5 5 5 5 5 4 5 6 6 7 6 5 6 6 5 6 6 6 6 10 14 15 19 19 20
8 9 9 8 7 7 5 6 6 6 5 5 6 5 5 5 3 3 5 7 3 3 3 2 3 4 4 6 6 6 6 7 5 7 5 7 9 8 9 10 9 7 9 10 9 9 8 8 11 8 5 5 9 9 10 8 8 7 6 6 5 6 5 5 4 5 5 6 6 5 5 6 5 6 6 6 6 6 6 6 6 6 9 19 18
8 8 9 8 8 7 7 5 6 6 5 5 7 7 6 7 7 4 5 5 3 4 3 1 3 6 5 4 4 5 5 8 5 7 7 7 7 7 8 8 7 8 9 11 10 10 12 12 10 11 11 8 6 8 9 10 9 8 7 6 6 5 7 5 6 5 5 5 4 4 5 4 5 6 6 5 5 6 6 6 6 6 6 10 16
9 10 10 11 12 11 11 11 7 9 9 8 8 8 8 6 4 6 6 4 3 4 4 1 2 4 6 6 6 5 6 7 6 6 8 7 7 7 9 6 7 8 10 11 11 11 11 10 9 8 14 12 8 6 5 9 10 7 6 7 6 5 5 5 6 5 5 4 3 4 4 5 5 6 5 5 6 6 6 6 5 5 6 5 7
11 11 11 11 10 11 12 10 8 8 8 8 7 8 7 7 6 5 4 5 5 6 4 2 3 3 5 5 6 8 7 7 5 6 8 9 8 7 7 7 10 8 9 11 11 11 11 9 10 8 2 11 8 7 6 6 4 7 8 5 5 4 3 4 5 6 4 4 3 4 4 5 5 4 3 5 6 6 6 5 5 5 5 5 5
11 13 10 11 13 12 12 10 8 9 8 9 8 7 5 3 3 4 6 5 2 3 3 2 2 3 3 2 3 6 10 8 5 7 8 8 8 10 9 7 8 9 9 10 10 9 8 11 10 11 7 2 6 1 2 3 5 4 5 7 3 3 1 2 2 4 4 4 3 5 4 5 5 4 3 4 5 5 5 5 6 6 6 6 5
9 10 11 11 10 11 13 12 11 8 8 8 7 5 6 7 7 6 6 3 3 4 3 2 3 3 3 2 1 3 8 9 7 7 7 7 10 9 8 8 8 8 12 12 9 9 9 8 9 11 11 10 5 3 2 1 5 11 5 1 3 2 3 4 3 2 2 4 4 4 3 4 4 3 3 5 4 4 5 5 6 5 5 5 5
9 11 11 12 9 13 12 12 11 11 7 7 7 7 7 7 6 6 5 7 6 4 4 2 1 1 2 3 3 3 6 8 6 6 8 8 9 8 9 8 9 7 9 9 9 10 10 8 11 11 14 12 8 3 1 0 5 4 5 6 3 2 3 3 4 2 0 3 4 3 3 3 4 3 4 4 4 4 4 5 5 5 5 5 5
10 11 11 10 9 11 11 12 10 9 10 10 9 7 7 8 8 9 9 6 6 7 8 10 6 7 7 2 2 4 6 6 4 4 7 7 9 8 8 9 8 8 8 9 10 9 9 10 10 11 11 11 11 8 4 2 2 1 1 1 2 2 6 3 3 4 1 1 1 3 2 2 2 4 3 4 4 3 3 4 4 4 4 4 3
10 9 9 10 10 11 12 13 13 11 9 9 10 8 8 9 14 12 10 11 10 7 6 6 7 3 4 4 2 3 5 6 4 3 4 6 7 7 7 8 8 8 8 10 10 10 9 9 8 9 8 8 8 9 9 5 3 2 2 1 2 2 7 8 4 4 4 3 2 3 2 1 2 3 3 3 3 3 3 3 3 4 4 4 3
9 9 10 10 13 13 13 13 12 10 10 11 12 10 13 12 11 10 9 10 11 12 10 7 3 4 5 4 3 3 4 4 4 4 4 5 6 6 6 7 8 7 8 8 10 8 7 6 6 6 7 8 8 9 8 8 10 4 1 2 3 4 4 4 5 5 4 7 4 1 2 2 3 2 3 3 3 3 4 3 3 3 3 4 3
10 11 12 11 11 11 12 12 12 11 11 12 11 12 9 11 9 8 7 5 3 4 4 4 4 4 6 4 4 3 4 4 3 3 4 5 6 7 8 7 7 8 7 6 7 10 12 12 9 8 9 7 6 8 9 9 7 7 6 2 3 4 3 3 2 3 3 4 3 4 5 4 3 2 2 2 2 2 3 3 3 2 3 3 3
9 10 10 10 10 11 13 13 13 11 11 12 11 13 13 9 10 10 10 7 6 5 4 5 5 5 5 5 4 3 3 4 3 3 4 4 5 6 6 9 9 8 7 8 9 9 10 10 10 9 9 9 5 9 10 9 7 8 6 7 5 3 4 2 3 4 4 2 4 5 3 4 4 3 0 2 2 3 3 3 3 2 2 3 3
8 10 10 11 11 12 14 15 14 12 13 15 12 13 11 11 10 11 11 11 9 8 8 5 5 4 5 5 5 4 4 4 3 4 5 5 5 5 6 7 7 8 8 9 9 9 9 8 8 9 9 10 9 7 6 8 7 7 6 7 7 8 6 5 7 3 4 3 3 2 1 1 1 1 2 2 1 2 3 2 2 1 2 3 3
Wind_Direction
199 186 189 215 264 117 118 124 118 116 112 109 110 104 99 95 94 91 93 94 93 92 93 96 94 92 94 86 79 74 70 66 65 64 63 63 64 65 67 68 70 73 74 74 77 81 83 82 81 80 79 78 78 75 72 74 72 72 71 69 66 65 62 61 59 55 54 56 59 60 61 60 59 61 64 64 61 56 51 46 43 46 46 45 46
173 184 185 172 168 126 135 141 175 131 124 120 112 104 98 95 95 95 94 93 91 92 93 93 91 90 90 86 81 75 70 67 65 64 64 65 65 66 67 70 71 73 75 77 78 80 84 86 84 82 81 81 81 79 75 75 75 75 74 71 69 66 65 63 61 56 53 52 51 52 58 60 60 61 64 66 62 55 51 48 46 47 47 47 48
144 158 160 172 206 102 133 140 155 136 117 115 107 102 100 97 96 94 95 97 96 95 91 89 90 93 92 87 82 78 72 68 65 64 65 66 66 66 68 70 72 74 75 77 81 84 86 86 84 84 82 83 83 83 79 77 77 76 76 73 70 68 65 62 58 56 53 49 47 45 46 62 59 59 61 62 60 54 51 49 50 50 49 48 48
149 151 152 194 217 173 147 145 146 132 117 109 107 104 103 102 101 101 96 92 92 91 92 91 89 90 89 89 85 79 75 71 67 65 66 66 67 67 67 70 72 73 76 78 83 86 87 87 86 85 85 86 86 84 81 79 78 75 74 73 70 68 65 62 58 56 54 49 47 44 56 57 58 56 57 58 58 54 52 51 51 51 50 49 49
142 149 160 169 217 247 137 151 143 126 116 113 111 110 107 105 104 102 101 99 99 100 99 96 95 89 90 90 85 81 78 73 68 66 66 66 67 68 68 69 70 72 75 78 82 86 88 87 86 86 88 86 85 84 82 80 79 80 77 75 71 68 64 60 57 55 53 52 41 51 52 55 55 54 56 57 57 54 54 55 53 53 51 50 50
151 158 167 186 215 236 222 142 130 120 119 116 112 112 109 106 104 102 102 103 102 102 101 99 98 98 95 91 86 82 78 72 67 65 65 65 67 68 68 69 71 73 75 79 83 87 88 87 86 89 89 87 84 82 81 82 82 81 77 73 70 66 62 61 58 53 50 47 46 57 53 53 54 53 56 57 57 56 57 56 55 55 52 51 52
160 164 174 188 196 218 220 147 127 120 120 118 117 114 112 110 106 104 105 104 103 101 101 102 100 97 95 92 87 82 76 69 64 63 63 63 65 68 69 70 72 74 77 81 83 84 86 87 88 87 86 83 80 81 81 80 77 76 74 72 65 64 63 61 57 54 48 47 56 54 56 53 55 58 57 58 57 57 57 57 56 55 55 52 51
165 169 172 174 190 174 184 159 127 124 122 118 117 116 114 109 106 104 103 104 102 100 100 100 100 100 100 94 87 83 76 70 65 62 62 62 63 65 69 72 73 76 79 82 84 84 83 85 87 87 85 82 81 81 82 82 83 80 75 73 70 65 62 57 52 49 41 57 54 55 55 57 60 60 56 58 59 57 56 57 56 55 54 55 53
166 168 161 167 172 148 184 144 134 127 125 123 124 121 117 113 108 106 103 101 105 106 105 104 103 102 100 95 91 86 80 74 68 65 64 64 64 65 68 70 73 76 80 82 83 84 84 86 86 85 83 81 81 81 81 80 77 76 77 73 65 59 57 52 46 37 44 48 55 58 58 61 62 61 58 59 58 57 56 56 57 55 54 54 56
156 159 155 153 152 135 175 139 135 131 125 122 120 121 119 115 112 111 109 109 106 106 104 105 107 106 104 98 94 89 83 77 71 68 66 67 67 68 68 69 71 76 79 82 83 83 85 85 85 80 80 79 78 78 76 73 71 73 69 65 60 56 52 48 42 39 43 45 50 62 58 58 64 62 62 61 58 56 55 55 59 59 56 56 56
159 147 149 139 132 147 161 138 134 136 128 125 125 125 123 120 117 115 114 109 107 108 110 111 111 105 100 98 95 91 85 79 73 69 68 68 69 70 71 71 72 76 79 80 82 83 84 85 86 85 82 81 78 75 74 72 71 69 67 62 58 54 50 44 37 43 39 42 47 55 59 62 66 64 62 63 59 59 56 56 57 59 56 55 56
153 146 143 135 128 155 199 137 142 141 136 135 132 128 128 127 124 124 119 118 115 114 117 115 113 111 107 105 99 94 88 82 77 72 70 69 70 73 74 74 75 77 79 80 81 83 84 85 84 83 82 79 77 74 72 73 73 71 65 62 58 55 49 42 40 39 37 37 38 37 54 60 62 64 60 58 59 58 56 58 57 56 55 53 54
138 141 145 141 151 186 238 142 125 151 145 142 140 135 134 134 129 129 126 122 118 115 116 117 114 110 108 106 103 99 92 87 81 76 73 72 72 75 76 77 78 79 79 80 80 81 83 84 82 80 78 76 75 76 76 75 73 69 66 62 59 56 54 44 41 38 34 29 30 25 49 57 58 62 61 58 57 58 57 53 55 57 57 56 53
164 142 159 162 164 182 212 128 135 160 140 146 143 140 137 136 137 135 132 128 126 122 123 123 121 118 117 112 108 104 99 92 85 81 79 77 76 78 79 79 81 81 81 81 81 82 83 81 82 82 79 79 80 79 75 71 70 68 65 62 59 56 51 50 44 42 36 33 32 23 32 65 62 62 61 61 61 59 58 58 55 53 54 57 56
160 152 155 146 152 164 147 116 196 169 136 152 147 143 143 143 146 140 139 135 132 130 128 124 123 120 118 115 113 111 105 98 91 84 82 81 81 81 82 82 82 81 81 81 81 81 81 80 80 78 76 75 74 74 71 70 70 67 64 62 59 56 46 54 44 43 37 27 28 30 23 66 65 59 59 57 55 59 61 58 58 56 56 58 58
145 152 145 146 143 141 153 149 158 110 112 181 139 137 139 148 152 143 140 141 138 135 131 127 124 124 123 120 117 114 110 104 96 89 86 85 84 84 84 86 85 84 83 83 82 81 80 79 79 79 78 78 77 76 74 73 70 66 63 60 57 54 45 39 51 40 39 32 26 27 37 56 52 55 57 58 58 55 55 59 59 56 53 57 55
120 135 152 157 144 151 147 140 141 127 95 110 102 118 116 138 134 139 146 144 139 138 133 126 123 126 126 122 117 114 111 108 101 94 91 90 87 86 86 86 86 86 85 85 85 85 84 84 83 81 80 80 78 78 76 72 69 65 63 59 56 52 45 42 49 42 40 30 23 28 53 55 56 56 57 59 58 53 55 58 60 53 53 55 53
82 107 130 122 111 121 149 144 139 139 125 98 90 114 125 135 132 140 141 139 138 136 133 131 129 124 121 118 114 113 113 110 105 100 98 94 92 90 89 89 89 89 89 89 90 90 89 86 84 82 81 80 78 77 75 73 70 68 64 61 57 53 49 41 47 42 38 34 34 32 56 48 50 52 52 49 48 55 57 59 58 55 56 54 55
73 71 63 98 99 74 134 128 137 142 149 149 160 135 124 135 127 125 136 131 133 136 138 134 126 121 119 114 104 107 115 109 96 97 98 96 93 92 92 92 92 92 92 92 91 91 89 87 85 83 81 79 78 77 75 72 70 67 64 60 57 54 44 45 43 37 30 36 39 51 53 51 53 53 53 54 50 51 53 53 55 57 59 59 60
70 97 84 20 103 103 124 115 119 138 155 158 153 142 138 136 120 113 126 139 137 126 125 124 122 121 115 110 103 103 106 97 96 98 95 93 93 95 93 92 92 92 93 93 93 92 90 87 83 80 77 75 74 72 70 69 67 63 61 58 55 48 49 48 44 39 32 34 47 62 55 60 61 60 59 58 57 54 51 49 49 53 56 56 57
16 37 72 83 91 100 85 112 85 117 147 158 139 136 151 141 135 114 101 121 132 126 120 121 120 119 119 113 110 112 116 110 98 101 97 94 92 91 91 90 89 90 92 93 92 90 88 86 83 79 76 73 69 67 64 63 61 60 57 53 46 48 46 45 41 41 34 22 54 65 63 64 63 63 63 62 61 60 57 53 51 49 53 54 57
151 117 49 335 84 109 112 108 95 119 132 165 141 135 162 164 157 150 136 131 127 128 130 133 130 128 120 124 123 122 124 120 114 108 101 99 94 96 97 95 90 91 94 96 94 92 90 88 84 81 78 74 69 66 62 60 57 57 55 45 52 46 39 40 39 37 28 28 30 58 60 62 62 62 62 63 62 61 59 58 55 52 50 51 50
165 168 145 144 78 108 100 102 94 48 148 174 162 152 170 174 167 155 141 140 136 140 135 131 138 136 136 129 130 130 130 129 128 123 115 106 100 94 91 92 93 93 96 97 96 94 92 90 88 85 82 78 72 69 67 62 59 50 48 46 50 45 40 38 39 34 32 18 31 35 63 66 64 65 63 62 62 60 60 59 58 56 55 52 51
169 177 159 211 200 131 110 110 80 60 78 175 211 167 169 171 169 154 153 154 150 153 152 141 142 143 139 138 137 135 134 134 125 120 116 109 101 97 95 91 89 86 87 90 92 94 96 91 88 86 81 73 76 74 72 66 62 57 54 51 49 42 41 35 36 32 29 22 25 18 53 63 64 64 66 64 62 61 61 61 60 59 59 58 59
162 115 178 179 163 172 160 102 64 78 87 104 184 203 167 164 160 162 156 163 154 159 154 145 145 147 144 142 143 139 138 140 141 135 122 119 122 120 111 104 100 98 101 92 98 101 99 97 93 83 79 78 77 71 74 72 66 62 58 53 51 45 42 37 34 33 25 21 20 17 37 56 63 63 63 65 62 63 63 64 66 63 64 67 62
135 180 193 180 162 72 97 93 60 340 359 150 234 259 210 154 163 178 150 163 162 156 154 149 150 153 151 149 144 144 146 147 150 142 132 133 131 129 119 118 113 111 113 105 99 100 98 97 94 92 88 82 77 75 68 71 70 65 61 55 52 50 49 41 36 35 26 19 19 26 38 49 58 59 64 64 64 63 66 63 67 70 70 70 69
186 198 137 242 274 301 306 97 161 218 257 311 330 62 247 164 165 168 155 171 172 161 163 153 154 155 151 156 154 151 153 156 158 151 141 141 137 135 131 128 126 124 126 119 112 105 101 98 93 91 92 90 85 79 75 70 68 74 68 60 55 55 51 46 40 36 27 23 23 23 44 49 56 62 62 63 64 65 65 67 67 67 67 70 70
175 196 205 204 200 176 12 25 216 219 230 221 255 298 288 228 194 168 188 173 175 163 176 163 158 170 158 166 157 155 158 164 166 162 145 151 145 138 136 129 126 129 130 120 120 118 107 99 97 94 93 89 91 81 79 75 68 67 71 63 59 57 53 52 49 39 33 31 27 19 33 55 55 56 52 59 61 60 60 60 60 64 66 68 70
203 216 210 210 215 193 190 174 248 278 246 218 242 222 252 260 231 199 195 180 183 170 175 166 164 168 166 166 160 158 162 171 167 168 157 154 146 141 140 135 132 131 129 122 127 123 112 112 105 100 98 96 92 86 81 75 72 66 72 69 63 59 54 54 51 44 40 36 34 25 29 40 62 58 58 57 58 56 54 52 56 62 63 65 63
203 193 190 205 195 190 191 200 194 213 271 250 233 239 233 238 228 213 185 184 192 172 166 165 196 164 170 173 167 165 169 169 164 156 161 157 149 144 141 141 136 142 135 131 132 123 121 115 109 109 110 99 93 90 87 80 74 69 69 73 64 61 60 58 51 50 49 45 38 35 30 35 45 64 61 60 57 57 52 48 47 50 54 56 60
186 197 194 192 188 178 201 203 196 189 206 250 238 234 223 230 229 206 168 181 171 149 168 169 176 184 161 182 163 158 164 167 169 162 159 161 150 149 146 144 143 150 144 132 131 119 117 114 116 120 115 105 99 99 94 90 80 71 68 71 67 66 63 60 61 57 55 48 50 43 35 34 39 44 58 61 58 56 54 50 47 48 51 54 55
189 196 189 179 179 191 193 200 197 179 181 224 240 235 226 210 208 187 177 164 165 162 169 159 191 172 162 173 172 160 158 167 162 162 156 158 146 150 140 144 146 138 133 129 121 114 111 109 108 110 108 105 101 92 88 93 84 75 70 73 67 68 64 63 64 57 57 54 52 50 46 37 36 41 44 52 56 55 54 53 52 52 52 53 54
204 184 182 178 188 185 189 197 198 193 193 213 225 229 218 188 189 185 159 150 169 172 167 166 177 163 155 170 174 157 153 163 162 164 153 159 136 139 138 137 139 132 130 121 122 117 117 111 109 111 103 106 101 96 89 83 89 82 74 73 75 70 64 67 63 59 54 52 50 50 51 44 42 37 38 43 48 51 53 53 51 50 53 52 50
176 187 175 191 186 179 178 185 199 218 216 217 219 216 199 175 169 176 134 137 152 166 153 144 152 159 154 163 166 160 160 163 161 147 162 153 140 140 140 133 137 122 125 129 127 123 118 117 119 117 112 106 102 106 102 95 91 89 81 77 74 74 73 68 61 59 57 55 53 51 49 47 45 45 36 37 41 45 49 52 52 50 49 52 52
165 183 190 183 182 181 174 200 198 219 211 213 210 208 173 166 162 162 134 134 128 143 150 142 149 153 148 147 151 154 158 159 164 149 133 122 139 145 138 133 137 129 128 128 126 121 118 119 131 118 116 106 105 105 105 103 102 95 87 82 79 78 71 71 63 60 57 59 57 53 49 48 46 44 35 42 33 40 45 49 50 49 48 47 47
187 181 181 180 183 184 180 196 198 207 206 202 196 179 159 154 160 184 129 102 144 133 145 152 137 140 137 134 144 143 137 146 161 155 142 143 127 121 128 132 136 133 130 129 129 133 124 121 127 131 121 113 114 106 101 100 96 93 87 77 75 68 73 69 64 63 55 59 57 54 51 49 45 46 40 43 44 36 42 45 47 47 47 45 46
182 177 179 175 181 182 181 190 190 189 180 168 136 103 114 114 131 222 126 111 158 133 88 164 142 143 131 137 150 145 142 138 136 156 153 146 138 131 132 129 131 132 134 134 132 137 131 128 127 129 122 127 118 112 102 101 97 91 86 80 66 70 68 63 63 70 64 65 62 56 55 50 49 45 47 45 44 43 40 43 44 45 43 44 44
193 187 181 177 180 174 175 184 179 163 154 147 127 117 107 102 101 151 105 108 125 105 106 233 145 147 129 131 141 141 135 125 126 115 122 134 134 134 139 134 128 127 117 125 127 128 125 127 119 117 122 125 126 120 113 104 97 93 82 75 72 67 67 66 67 59 62 64 57 53 54 54 51 49 49 51 49 49 45 41 41 39 37 40 43
189 188 182 179 166 169 168 173 166 161 139 125 116 105 105 85 90 81 107 98 90 39 89 186 140 109 115 120 130 146 142 123 127 127 125 125 133 126 136 145 136 128 124 123 126 127 124 124 125 121 98 99 121 115 118 112 97 90 80 71 72 64 66 64 60 59 57 58 67 67 61 55 59 51 53 51 50 50 47 42 37 36 32 34 39
186 184 182 174 168 169 174 162 170 155 130 131 138 139 136 142 136 114 82 70 87 113 88 203 209 120 116 126 137 146 146 124 144 133 132 132 132 136 133 143 141 131 126 132 139 142 138 132 132 124 115 96 84 112 125 110 91 85 84 74 61 62 61 58 61 59 61 56 64 60 65 59 61 58 55 55 56 51 50 45 43 40 36 33 37
191 185 179 185 184 181 179 182 170 164 162 163 167 166 161 151 158 169 141 141 155 118 98 190 102 113 130 147 138 140 115 118 139 143 137 127 132 135 143 141 152 143 140 145 146 141 140 138 131 130 126 120 117 124 133 120 114 82 77 73 68 55 60 57 63 60 56 57 58 71 65 69 63 62 56 62 60 56 55 50 49 46 40 35 32
202 188 188 183 178 178 183 178 167 173 177 174 172 176 175 179 168 166 133 150 157 149 138 190 136 91 124 139 161 144 132 121 133 156 132 134 137 144 153 150 147 143 139 140 140 141 140 140 135 116 98 130 137 164 167 115 97 139 135 114 80 74 68 56 62 59 61 60 63 70 69 72 69 69 67 67 63 60 56 56 55 51 47 44 36
185 191 185 176 183 182 186 179 171 178 181 176 176 178 163 110 127 143 145 132 29 35 58 94 109 100 81 126 214 170 137 132 158 161 138 145 144 140 156 159 146 134 132 142 144 147 154 151 153 137 131 20 106 21 185 328 127 111 99 106 146 124 167 99 89 71 63 62 65 71 69 75 72 71 74 73 68 62 59 55 57 55 51 46 43
187 192 188 185 183 187 189 185 181 177 175 178 170 124 84 90 67 92 73 62 139 106 95 103 80 94 123 145 191 170 124 130 156 154 144 147 146 155 152 157 155 159 152 149 154 150 155 153 147 143 135 134 147 158 352 266 161 142 150 167 156 147 144 208 158 119 88 68 60 76 73 81 85 82 73 71 70 70 65 59 57 57 51 48 44
198 194 189 189 187 188 185 180 180 179 169 156 138 129 115 93 98 81 86 93 77 95 117 95 103 144 141 166 174 136 108 123 143 163 154 152 151 155 161 163 157 164 154 143 157 163 162 158 153 148 158 146 147 125 104 245 203 338 138 129 105 206 218 136 133 154 94 137 74 68 80 90 95 87 85 84 85 78 77 69 65 61 54 52 45
202 199 193 189 180 182 179 178 178 176 174 159 147 146 146 137 142 151 163 159 152 166 178 173 176 185 183 153 126 106 102 112 133 155 138 154 155 167 166 161 158 156 164 152 140 137 158 160 170 159 157 160 142 129 126 15 12 40 338 358 207 174 153 161 152 176 110 343 80 92 77 86 90 100 92 98 94 90 83 85 72 67 60 52 48
205 182 184 186 178 175 180 181 184 182 170 158 160 159 150 169 176 180 177 175 171 193 174 175 177 149 108 136 122 103 99 110 120 148 136 144 145 164 169 172 158 147 142 141 153 165 165 163 158 164 151 128 142 138 155 153 136 65 37 53 65 16 132 137 195 102 167 186 210 145 123 136 109 100 99 100 114 117 103 95 84 76 62 52 43
182 176 183 182 183 179 179 181 181 176 175 170 173 174 175 180 185 185 180 183 184 180 181 168 120 124 121 133 142 108 100 102 121 119 130 150 156 159 168 159 152 146 150 164 157 152 141 126 146 129 131 152 161 150 154 170 164 147 101 96 73 69 56 51 114 166 143 159 181 170 141 181 141 107 110 120 124 121 121 105 93 80 73 55 41
178 183 185 183 180 177 178 180 180 174 176 174 176 183 180 181 181 177 178 181 133 119 120 103 130 140 127 130 129 125 104 93 98 119 132 150 163 168 164 154 148 153 162 149 147 151 155 150 153 150 161 158 162 154 147 172 159 155 142 90 86 69 61 51 94 74 135 143 149 181 162 168 169 155 130 109 104 123 124 111 95 91 89 69 51
184 184 179 175 178 176 180 181 182 179 177 178 180 185 189 181 186 187 179 159 126 113 119 134 146 155 138 134 134 149 129 130 135 129 136 159 152 170 177 159 156 155 157 147 140 146 148 152 156 154 149 149 148 166 165 156 156 151 162 145 137 129 89 91 57 92 49 36 162 177 184 164 175 149 192 82 102 126 125 116 118 111 92 80 55
181 179 179 180 179 180 182 186 183 178 179 184 181 186 185 187 189 186 178 161 148 144 146 148 147 156 146 149 161 153 147 147 149 155 153 150 163 189 178 157 149 152 145 148 162 157 155 150 145 140 152 156 156 159 131 137 143 147 155 161 157 167 165 169 175 170 139 144 120 134 137 204 156 224 140 4 69 112 129 125 118 109 92 82 65